TimeEST,TemperatureF,Dew PointF,Humidity,Sea Level PressureIn,VisibilityMPH,Wind Direction,Wind SpeedMPH,Gust SpeedMPH,PrecipitationIn,Events,Conditions,WindDirDegrees,DateUTC
12:51 AM,32.0,21.9,66,29.71,10.0,NW,11.5,-,N/A,,Overcast,310,2012-12-30 05:51:00
1:51 AM,32.0,21.0,64,29.75,10.0,NW,15.0,23.0,N/A,,Overcast,310,2012-12-30 06:51:00
2:51 AM,32.0,21.0,64,29.78,10.0,WNW,8.1,-,N/A,,Overcast,300,2012-12-30 07:51:00
3:51 AM,32.0,21.0,64,29.82,10.0,WNW,16.1,24.2,N/A,,Overcast,300,2012-12-30 08:51:00
4:51 AM,30.0,17.1,59,29.83,10.0,WNW,12.7,20.7,N/A,,Mostly Cloudy,300,2012-12-30 09:51:00
5:51 AM,28.9,16.0,58,29.86,10.0,WNW,10.4,17.3,N/A,,Clear,300,2012-12-30 10:51:00
6:51 AM,30.0,16.0,56,29.89,10.0,WNW,17.3,23.0,N/A,,Clear,300,2012-12-30 11:51:00
7:51 AM,28.9,16.0,58,29.92,10.0,WNW,16.1,25.3,N/A,,Clear,290,2012-12-30 12:51:00
8:51 AM,30.0,14.0,51,29.96,10.0,WNW,13.8,24.2,N/A,,Partly Cloudy,300,2012-12-30 13:51:00
9:51 AM,30.0,14.0,51,30.01,10.0,WNW,21.9,33.4,N/A,,Clear,300,2012-12-30 14:51:00
10:51 AM,32.0,16.0,52,30.02,10.0,WNW,18.4,29.9,N/A,,Scattered Clouds,300,2012-12-30 15:51:00
11:51 AM,33.1,17.1,52,30.02,10.0,WNW,15.0,29.9,N/A,,Overcast,300,2012-12-30 16:51:00
12:51 PM,35.6,17.6,48,30.00,10.0,NW,18.4,31.1,N/A,,Overcast,310,2012-12-30 17:51:00
1:51 PM,35.1,18.0,50,30.03,10.0,WNW,15.0,24.2,N/A,,Overcast,290,2012-12-30 18:51:00
2:51 PM,35.1,21.9,59,30.06,10.0,WNW,13.8,21.9,N/A,,Overcast,290,2012-12-30 19:51:00
3:51 PM,34.0,19.0,54,30.10,10.0,WNW,16.1,25.3,N/A,,Overcast,300,2012-12-30 20:51:00
4:51 PM,34.0,16.0,48,30.13,10.0,WNW,18.4,26.5,N/A,,Mostly Cloudy,290,2012-12-30 21:51:00
5:51 PM,33.1,16.0,50,30.17,10.0,WNW,15.0,24.2,N/A,,Mostly Cloudy,300,2012-12-30 22:51:00
6:51 PM,33.1,14.0,46,30.20,10.0,WNW,16.1,31.1,N/A,,Mostly Cloudy,300,2012-12-30 23:51:00
7:51 PM,30.9,14.0,50,30.22,10.0,NW,10.4,17.3,N/A,,Partly Cloudy,310,2012-12-31 00:51:00
8:51 PM,30.9,12.9,47,30.21,10.0,Variable,6.9,16.1,N/A,,Partly Cloudy,0,2012-12-31 01:51:00
9:51 PM,30.0,12.0,47,30.22,10.0,NW,8.1,-,N/A,,Partly Cloudy,310,2012-12-31 02:51:00
10:51 PM,30.0,12.9,49,30.22,10.0,WNW,12.7,-,N/A,,Clear,300,2012-12-31 03:51:00
11:51 PM,28.9,15.1,56,30.23,10.0,West,6.9,-,N/A,,Mostly Cloudy,280,2012-12-31 04:51:00